weather.gov     
National Weather Service

Regional Weather Roundup
NWS Homepage
This page is being discontinued on March 12, 2014.
The same data is available at this site. Please update your bookmarks.
Thank you, and we apologize for the inconvenience.
Please send an email to SR-SRH.Webmaster@noaa.gov with any concerns.


Current Version
Previous Version:    01  02  03  04  05  06  07  08  09  10  11  12  13  14  15  16  17  18  19  20  21  22  23  24  25  26  
[Printable]
011
ASUS45 KBOI 241110
RWRID
WEATHER ROUNDUP FOR IDAHO
NATIONAL WEATHER SERVICE BOISE ID
500 AM MDT FRI OCT 24 2014

NOTE: "FAIR" INDICATES FEW OR NO CLOUDS BELOW 12000 FEET
WITH NO SIGNIFICANT WEATHER AND/OR OBSTRUCTIONS TO VISIBILITY

IDZ012-014-241200-
SOUTHWEST IDAHO


CITY           SKY/WX    TMP DP  RH WIND       PRES   REMARKS
BOISE          LGT RAIN  51  49  92 SW5       30.07F
CALDWELL       CLOUDY    50  43  76 CALM      30.09S
MOUNTAIN HOME  CLOUDY    51  51 100 S2        30.07F
$$

IDZ016-017-241200-
SOUTHCENTRAL IDAHO


CITY           SKY/WX    TMP DP  RH WIND       PRES   REMARKS
BURLEY         CLOUDY    46  39  76 CALM      30.11F
JEROME         CLOUDY    50  41  71 CALM      30.12S
TWIN FALLS     CLOUDY    50  40  68 CALM      30.11F HAZE
$$

IDZ019>023-241200-
SOUTHEAST IDAHO


CITY           SKY/WX    TMP DP  RH WIND       PRES   REMARKS
IDAHO FALLS    CLOUDY    51  39  63 S15       30.13S
POCATELLO      CLOUDY    49  38  65 SW5       30.15R
REXBURG        CLOUDY    51  35  54 S13       30.13R
$$

IDZ006-010-011-018-031-032-241200-
CENTRAL IDAHO MOUNTAINS


CITY           SKY/WX    TMP DP  RH WIND       PRES   REMARKS
MCCALL         CLOUDY    41  40  96 CALM      30.09S
HAILEY         CLOUDY    45  43  93 S3        30.15R
STANLEY          N/A     40  39  97 CALM      30.13S
SALMON         CLOUDY    46  41  81 CALM      30.04R
CHALLIS        CLOUDY    46  38  73 CALM      30.07S
$$

IDZ002-004-006-007-026-241200-
NORTHERN IDAHO


CITY           SKY/WX    TMP DP  RH WIND       PRES   REMARKS
LEWISTON       CLOUDY    50  48  93 NE3       30.07S
LOWELL           N/A     50  49  96 CALM      30.10R
COEUR D`ALENE  CLOUDY    45  37  76 CALM      30.04S
MULLAN PASS    CLOUDY    32  31  96 VRB6      30.03R WCI  26
$$




U.S. Dept. of Commerce
NOAA National Weather Service
1325 East West Highway
Silver Spring, MD 20910
E-mail: w-nws.webmaster@noaa.gov
Page last modified: May 16, 2007
NATIONAL WEATHER SERVICE: for Safety, for Work, for Fun - FOR LIFE